{"data":{"norad_id":81640,"epoch":"2026-09-15T13:54:30.047616Z","epoch_age_seconds":439798,"freshness":"STALE","line1":"1 81640U          26258.57951444  .00000184  00000+0  21455-3 0  9993","line2":"2 81640  65.8232 285.8050 0988857 325.1420  28.8467 12.57384785544881","mean_motion":12.57384785,"eccentricity":0.0988857,"inclination_deg":65.8232,"raan_deg":285.805,"arg_perigee_deg":325.142,"mean_anomaly_deg":28.8467,"bstar":0.00021455,"rev_number":54488,"period_min":114.52341536008,"perigee_km":661.27291851431,"apogee_km":2206.2422467765,"semimajor_km":7811.8945826454,"source":"CELESTRAK","updated_at":"2026-09-20T09:00:32.393009Z"}}